TimeCDT,TemperatureF,Dew PointF,Humidity,Sea Level PressureIn,VisibilityMPH,Wind Direction,Wind SpeedMPH,Gust SpeedMPH,PrecipitationIn,Events,Conditions,WindDirDegrees,DateUTC
12:15 AM,26.4,20.3,78,30.04,10.0,ESE,3.5,-,N/A,,Clear,110,2013-03-22 05:15:00
12:35 AM,25.7,20.3,80,30.04,10.0,Calm,Calm,-,N/A,,Clear,0,2013-03-22 05:35:00
12:55 AM,27.9,20.3,73,30.04,10.0,SE,3.5,-,N/A,,Clear,140,2013-03-22 05:55:00
1:15 AM,27.9,20.1,73,30.03,10.0,SSE,4.6,-,N/A,,Clear,150,2013-03-22 06:15:00
1:35 AM,28.4,20.1,71,30.03,10.0,SE,3.5,-,N/A,,Clear,140,2013-03-22 06:35:00
1:55 AM,24.4,19.4,81,30.04,10.0,ENE,4.6,-,N/A,,Clear,60,2013-03-22 06:55:00
2:15 AM,25.2,21.2,85,30.05,10.0,Calm,Calm,-,N/A,,Clear,0,2013-03-22 07:15:00
2:35 AM,24.4,20.8,86,30.05,10.0,Calm,Calm,-,N/A,,Clear,0,2013-03-22 07:35:00
2:55 AM,23.9,20.5,87,30.05,10.0,East,3.5,-,N/A,,Clear,90,2013-03-22 07:55:00
3:15 AM,22.3,18.5,85,30.05,10.0,Calm,Calm,-,N/A,,Clear,0,2013-03-22 08:15:00
3:35 AM,23.0,19.9,88,30.05,10.0,Calm,Calm,-,N/A,,Clear,0,2013-03-22 08:35:00
3:55 AM,22.5,19.4,88,30.04,10.0,Calm,Calm,-,N/A,,Clear,0,2013-03-22 08:55:00
4:15 AM,22.5,20.1,91,30.04,10.0,NE,3.5,-,N/A,,Clear,50,2013-03-22 09:15:00
4:35 AM,21.7,19.6,91,30.04,10.0,NE,3.5,-,N/A,,Clear,50,2013-03-22 09:35:00
4:55 AM,21.4,18.7,89,30.04,10.0,NE,5.8,-,N/A,,Clear,50,2013-03-22 09:55:00
5:15 AM,22.8,19.6,87,30.04,10.0,NE,5.8,-,N/A,,Clear,50,2013-03-22 10:15:00
5:35 AM,22.3,19.0,87,30.04,10.0,ENE,4.6,-,N/A,,Clear,60,2013-03-22 10:35:00
5:55 AM,21.2,17.6,86,30.05,10.0,ENE,4.6,-,N/A,,Clear,60,2013-03-22 10:55:00
6:15 AM,21.2,17.6,86,30.05,10.0,ENE,4.6,-,N/A,,Clear,70,2013-03-22 11:15:00
6:35 AM,22.3,18.5,85,30.05,10.0,ENE,8.1,-,N/A,,Clear,70,2013-03-22 11:35:00
6:55 AM,21.6,17.6,85,30.05,10.0,East,5.8,-,N/A,,Clear,80,2013-03-22 11:55:00
7:15 AM,21.6,17.6,85,30.05,10.0,East,6.9,-,N/A,,Clear,80,2013-03-22 12:15:00
7:35 AM,22.1,18.3,85,30.06,10.0,East,3.5,-,N/A,,Clear,90,2013-03-22 12:35:00
7:55 AM,24.4,20.3,84,30.06,10.0,East,4.6,-,N/A,,Clear,80,2013-03-22 12:55:00
8:15 AM,27.5,21.9,80,30.06,10.0,East,6.9,-,N/A,,Clear,90,2013-03-22 13:15:00
8:35 AM,29.3,23.0,77,30.07,10.0,East,4.6,-,N/A,,Scattered Clouds,80,2013-03-22 13:35:00
8:55 AM,31.8,24.4,74,30.07,10.0,East,4.6,-,N/A,,Scattered Clouds,100,2013-03-22 13:55:00
9:15 AM,32.7,23.0,67,30.07,10.0,ESE,5.8,-,N/A,,Mostly Cloudy,110,2013-03-22 14:15:00
9:35 AM,33.6,22.6,64,30.07,10.0,East,6.9,-,N/A,,Overcast,90,2013-03-22 14:35:00
9:55 AM,34.0,20.8,59,30.07,10.0,ESE,6.9,-,N/A,,Overcast,110,2013-03-22 14:55:00
10:15 AM,34.7,20.5,56,30.07,10.0,East,6.9,-,N/A,,Overcast,100,2013-03-22 15:15:00
10:35 AM,35.6,21.2,56,30.07,10.0,ESE,6.9,-,N/A,,Overcast,120,2013-03-22 15:35:00
10:55 AM,36.1,19.4,51,30.07,10.0,SE,8.1,-,N/A,,Overcast,130,2013-03-22 15:55:00
11:15 AM,37.6,20.5,50,30.07,10.0,SE,8.1,-,N/A,,Overcast,130,2013-03-22 16:15:00
11:35 AM,38.3,20.1,48,30.07,10.0,SE,9.2,-,N/A,,Overcast,130,2013-03-22 16:35:00
11:55 AM,37.9,19.4,47,30.06,10.0,ESE,5.8,-,N/A,,Overcast,110,2013-03-22 16:55:00
12:15 PM,38.5,18.9,45,30.05,10.0,SSE,5.8,-,N/A,,Overcast,150,2013-03-22 17:15:00
12:35 PM,38.8,19.8,46,30.04,10.0,SE,5.8,-,N/A,,Overcast,140,2013-03-22 17:35:00
12:55 PM,39.4,20.3,46,30.04,10.0,SE,5.8,-,N/A,,Overcast,140,2013-03-22 17:55:00
1:15 PM,40.3,20.3,45,30.04,10.0,SE,5.8,-,N/A,,Overcast,140,2013-03-22 18:15:00
1:35 PM,40.8,19.8,43,30.03,10.0,SE,6.9,-,N/A,,Mostly Cloudy,140,2013-03-22 18:35:00
1:55 PM,40.5,18.7,42,30.02,10.0,ESE,6.9,-,N/A,,Mostly Cloudy,120,2013-03-22 18:55:00
2:15 PM,40.6,19.2,42,30.02,10.0,SE,3.5,-,N/A,,Mostly Cloudy,140,2013-03-22 19:15:00
2:35 PM,40.5,16.5,38,30.02,10.0,ESE,4.6,-,N/A,,Mostly Cloudy,120,2013-03-22 19:35:00
2:55 PM,41.0,18.0,40,30.02,10.0,SE,4.6,-,N/A,,Mostly Cloudy,140,2013-03-22 19:55:00
3:15 PM,41.2,19.2,41,30.01,10.0,Calm,Calm,-,N/A,,Mostly Cloudy,0,2013-03-22 20:15:00
3:35 PM,40.8,19.8,43,30.01,10.0,SE,4.6,-,N/A,,Overcast,130,2013-03-22 20:35:00
3:55 PM,40.8,19.8,43,30.01,10.0,South,4.6,-,N/A,,Mostly Cloudy,190,2013-03-22 20:55:00
4:15 PM,40.6,19.8,43,30.02,10.0,South,4.6,-,N/A,,Overcast,170,2013-03-22 21:15:00
4:35 PM,41.0,20.1,43,30.03,10.0,South,4.6,-,N/A,,Overcast,190,2013-03-22 21:35:00
4:55 PM,41.0,19.2,42,30.02,10.0,Calm,Calm,-,N/A,,Mostly Cloudy,0,2013-03-22 21:55:00
5:15 PM,41.4,19.0,41,30.01,10.0,Calm,Calm,-,N/A,,Scattered Clouds,0,2013-03-22 22:15:00
5:35 PM,41.4,19.9,42,30.01,10.0,East,4.6,-,N/A,,Clear,100,2013-03-22 22:35:00
5:55 PM,40.6,19.2,42,30.01,10.0,Calm,Calm,-,N/A,,Scattered Clouds,0,2013-03-22 22:55:00
6:15 PM,40.5,19.9,44,30.02,10.0,Calm,Calm,-,N/A,,Scattered Clouds,0,2013-03-22 23:15:00
6:35 PM,40.3,20.8,46,30.02,10.0,Calm,Calm,-,N/A,,Mostly Cloudy,0,2013-03-22 23:35:00
6:55 PM,40.1,21.4,47,30.02,10.0,Calm,Calm,-,N/A,,Overcast,0,2013-03-22 23:55:00
7:15 PM,39.6,22.3,50,30.02,10.0,Calm,Calm,-,N/A,,Overcast,0,2013-03-23 00:15:00
7:35 PM,39.6,23.4,52,30.03,10.0,Calm,Calm,-,N/A,,Overcast,0,2013-03-23 00:35:00
7:55 PM,39.2,24.3,55,30.03,10.0,Calm,Calm,-,N/A,,Overcast,0,2013-03-23 00:55:00
8:15 PM,39.2,23.9,54,30.03,10.0,Calm,Calm,-,N/A,,Overcast,0,2013-03-23 01:15:00
8:35 PM,38.7,22.8,53,30.04,10.0,Calm,Calm,-,N/A,,Overcast,0,2013-03-23 01:35:00
8:55 PM,38.7,24.3,56,30.03,10.0,Calm,Calm,-,N/A,,Overcast,0,2013-03-23 01:55:00
9:15 PM,38.1,26.4,63,30.04,10.0,Calm,Calm,-,N/A,,Overcast,0,2013-03-23 02:15:00
9:35 PM,37.9,27.1,65,30.03,10.0,Calm,Calm,-,N/A,,Overcast,0,2013-03-23 02:35:00
9:55 PM,37.8,26.6,64,30.04,10.0,Calm,Calm,-,N/A,,Overcast,0,2013-03-23 02:55:00
10:15 PM,37.4,26.8,66,30.04,10.0,Calm,Calm,-,N/A,,Overcast,0,2013-03-23 03:15:00
10:35 PM,36.7,28.8,73,30.05,10.0,Calm,Calm,-,N/A,,Overcast,0,2013-03-23 03:35:00
10:55 PM,37.4,24.8,60,30.05,10.0,Calm,Calm,-,N/A,,Overcast,0,2013-03-23 03:55:00
11:15 PM,37.2,25.0,61,30.05,10.0,Calm,Calm,-,N/A,,Overcast,0,2013-03-23 04:15:00
11:35 PM,36.7,26.8,67,30.05,10.0,Calm,Calm,-,N/A,,Overcast,0,2013-03-23 04:35:00
11:55 PM,36.1,28.6,74,30.05,10.0,Calm,Calm,-,N/A,,Overcast,0,2013-03-23 04:55:00